Wind_Speed
8 7 7 6 6 6 6 6 6 6 6 6 6 6 6 6 5 4 5 4 3 3 3 3 3 3 4 4 4 5 5 5 5 5 5 4 4 6 6 6 6 4 3
8 8 7 6 6 6 6 6 7 7 7 7 7 7 6 6 6 6 5 5 4 4 4 5 4 4 5 5 5 5 5 5 6 6 5 5 5 6 7 6 5 4 3
8 7 6 7 8 8 8 7 7 8 7 7 7 7 7 6 6 7 6 6 5 5 6 6 6 6 6 6 6 6 5 6 6 6 6 5 6 6 6 5 4 4 4
8 8 7 9 9 8 8 8 8 8 8 8 8 8 7 7 7 7 8 7 7 7 7 7 7 7 7 7 7 7 7 7 7 6 5 6 6 6 6 5 4 4 4
9 8 9 9 10 9 9 9 8 9 9 9 9 9 8 8 8 8 9 8 8 8 8 8 8 7 7 6 6 7 8 8 8 8 6 7 7 8 7 6 6 5 5
10 10 10 9 9 9 9 9 9 9 9 10 10 10 10 9 9 9 9 9 10 10 9 9 9 8 8 7 7 7 8 8 7 7 7 8 9 9 9 8 7 6 5
11 12 12 11 10 10 10 10 10 10 10 10 10 11 11 10 10 10 10 10 10 10 10 10 10 10 9 8 7 7 8 8 7 8 8 9 9 9 9 9 8 7 6
12 13 13 12 11 11 11 11 10 10 10 10 10 11 11 11 11 11 11 10 10 10 10 10 10 10 10 9 8 8 8 8 8 9 9 9 9 9 9 9 8 8 8
13 13 12 12 11 11 11 11 10 10 10 10 11 11 12 12 12 12 12 11 11 11 11 11 11 10 10 10 9 9 9 9 9 10 10 9 9 9 9 10 10 9 9
13 13 12 11 11 11 11 11 11 11 11 11 12 12 12 12 12 12 12 12 11 12 12 12 11 10 10 11 10 9 9 10 9 10 10 10 10 9 9 10 10 11 11
13 13 12 12 12 11 11 11 11 11 11 11 12 12 12 12 13 13 12 12 11 11 11 11 11 10 10 10 11 10 10 10 9 9 9 10 10 9 10 10 10 11 11
13 14 14 14 12 11 11 11 11 11 12 12 12 13 13 13 13 13 13 12 11 11 11 12 11 10 10 10 11 11 11 11 10 10 9 10 10 10 10 11 10 11 11
13 14 14 14 13 12 11 11 11 11 12 11 12 12 12 12 12 12 12 12 12 12 12 13 12 11 11 10 10 11 11 11 11 10 10 10 11 11 11 10 10 11 11
13 13 13 14 13 12 11 11 11 11 11 11 11 12 11 11 11 12 12 12 13 13 13 13 12 12 11 11 11 11 10 11 11 11 10 10 11 11 10 10 11 11 11
14 13 13 13 13 12 11 11 11 11 10 11 11 11 11 11 12 12 12 12 13 13 13 14 13 12 11 10 11 11 10 11 11 10 11 11 11 11 11 11 11 12 12
14 13 12 12 12 11 10 10 10 10 10 11 11 11 12 12 12 13 12 13 13 14 14 14 14 12 12 11 12 11 11 11 11 11 10 10 10 11 11 12 12 12 12
14 13 12 11 11 11 10 10 9 9 10 11 11 11 12 12 12 13 13 13 14 15 14 14 13 13 12 12 11 11 11 10 11 10 10 11 11 11 12 13 13 13 13
15 14 12 11 11 11 10 9 9 9 9 10 11 11 11 11 11 12 13 13 13 13 13 13 13 13 13 13 12 12 11 12 12 12 12 12 12 12 13 13 14 14 14
14 13 13 13 12 11 11 10 9 10 10 11 11 10 10 10 11 11 11 12 12 12 12 12 12 13 14 14 13 12 13 13 13 13 14 14 13 13 14 14 15 15 16
14 13 13 13 12 12 11 10 10 11 11 11 10 9 9 9 10 10 11 11 11 12 12 11 13 13 14 14 13 13 14 14 14 14 15 15 15 15 15 16 16 17 16
14 13 12 11 12 11 11 9 10 10 10 10 9 8 8 8 9 10 11 12 12 12 12 12 12 13 14 14 14 13 14 14 15 15 14 15 15 16 17 17 17 18 18
13 13 13 12 12 12 10 10 10 9 9 9 9 9 8 8 9 10 10 11 11 12 12 12 12 14 14 14 14 15 14 14 14 14 15 15 15 15 16 17 17 18 18
12 12 13 11 11 11 10 9 9 9 8 8 8 8 8 8 9 9 10 10 11 10 11 12 12 13 13 14 15 15 14 14 15 15 15 15 15 15 16 16 17 17 18
12 12 11 10 10 10 10 9 8 8 7 6 7 8 8 9 9 9 10 10 11 11 11 12 12 13 14 14 15 15 15 15 15 15 15 14 15 15 15 16 16 17 18
13 12 11 9 10 10 10 9 8 8 7 6 7 8 9 9 9 10 10 10 10 10 11 12 13 13 14 14 15 15 15 15 15 15 15 15 15 15 15 16 16 17 18
13 12 11 9 9 9 9 9 8 8 8 7 7 7 8 7 8 9 10 10 10 9 10 11 11 12 12 12 14 15 15 14 14 15 16 16 16 16 16 16 16 16 17
Wind_Direction
331 332 322 321 319 319 314 309 303 295 286 287 292 292 290 287 281 273 264 260 254 252 250 239 222 223 228 224 218 210 209 202 198 191 183 180 186 179 169 167 165 163 158
331 332 323 319 313 311 307 302 296 295 287 281 281 282 278 278 275 267 265 260 253 251 250 238 228 233 238 238 230 222 218 204 192 187 183 183 187 179 173 172 170 172 174
333 331 322 316 313 310 305 294 289 286 283 278 276 275 273 270 268 267 264 259 251 249 251 248 236 232 236 231 232 233 225 209 204 206 197 192 192 192 183 175 176 176 172
330 327 323 313 311 307 300 291 287 284 278 274 272 271 270 267 262 261 261 262 257 250 251 255 245 240 244 241 242 243 236 231 232 222 207 203 208 202 193 195 198 188 177
323 323 322 313 311 306 302 294 287 284 281 274 269 268 268 267 264 262 261 263 261 255 251 251 247 245 245 248 251 246 243 245 238 230 216 214 216 215 208 210 209 206 199
318 314 312 310 310 306 302 297 290 285 284 277 271 268 265 266 266 263 259 259 259 256 251 246 247 247 251 255 256 253 249 244 236 232 225 228 227 222 217 219 216 214 211
316 313 311 305 305 302 299 295 288 285 283 277 272 271 266 266 265 262 260 259 256 254 250 247 247 246 249 252 255 254 250 247 244 238 234 234 233 225 222 224 221 217 218
316 313 311 306 301 299 299 298 291 284 282 275 272 271 268 265 262 260 260 261 257 251 248 245 245 246 249 251 250 251 254 252 250 244 238 235 232 231 229 228 226 223 227
313 308 306 304 303 304 302 297 294 284 281 277 275 273 270 268 262 257 258 262 261 254 248 245 243 244 245 250 252 250 253 257 251 245 243 237 232 234 234 234 228 228 226
317 312 304 304 303 301 299 297 294 287 283 279 277 275 274 272 266 261 259 260 258 254 250 244 241 242 245 248 250 248 252 259 258 252 247 242 241 238 237 234 231 230 228
315 312 300 300 299 298 297 296 296 288 282 278 277 276 274 271 266 263 261 260 258 253 245 240 241 244 248 248 249 248 252 257 258 257 249 241 240 240 238 232 230 231 232
313 309 303 302 299 297 296 295 294 290 284 279 276 276 273 270 265 261 258 257 257 255 248 244 241 244 247 248 247 248 254 254 255 252 247 242 241 243 240 237 235 236 237
310 309 304 303 303 299 295 293 292 291 286 281 277 277 272 267 260 256 257 256 254 251 249 246 245 246 248 250 250 250 251 248 252 251 248 245 242 244 241 242 240 237 237
308 310 307 303 302 301 295 288 284 286 284 282 279 277 268 263 258 254 256 255 252 251 250 247 246 248 249 249 246 249 250 250 251 251 252 249 245 242 242 243 239 241 243
305 306 305 302 300 300 295 287 280 278 281 283 278 273 266 263 258 254 253 249 249 254 253 250 251 251 255 251 243 242 245 247 248 254 256 254 247 244 244 246 245 247 245
307 304 303 301 301 301 297 289 284 280 282 283 278 270 267 261 256 255 254 252 252 256 253 251 250 252 250 248 242 244 245 250 251 252 255 255 251 250 251 250 247 245 243
309 307 301 301 300 298 292 289 286 285 282 281 279 273 266 256 256 259 257 254 257 257 253 249 246 247 246 242 239 246 247 251 252 252 254 258 257 255 255 256 251 247 246
302 303 305 303 301 299 294 285 287 288 286 284 280 273 264 255 260 259 256 255 257 255 249 247 245 246 245 238 237 242 246 249 253 252 255 258 258 256 258 256 255 253 251
300 300 305 306 299 295 294 292 289 289 286 285 280 272 263 258 257 257 255 253 253 253 251 249 244 244 243 239 239 242 246 250 254 255 258 258 256 257 258 257 256 254 252
296 298 301 302 294 287 289 297 293 293 285 282 279 274 269 260 254 255 253 251 251 250 252 251 246 242 244 243 246 244 247 252 256 258 258 258 257 256 256 255 254 253 251
295 297 297 299 292 288 293 299 299 297 287 283 277 278 274 262 256 257 252 250 248 249 251 252 248 245 246 247 248 246 247 249 253 258 261 259 258 256 256 255 252 250 250
286 287 291 291 289 291 294 297 299 298 289 283 278 278 272 262 260 257 251 250 249 251 252 252 250 248 250 247 248 249 246 250 255 261 262 261 258 257 256 256 254 252 249
283 283 289 286 288 292 294 300 298 301 292 280 276 277 271 267 265 259 253 251 250 252 251 252 251 249 249 249 250 252 252 250 256 260 261 259 260 261 261 258 256 254 251
280 282 282 284 288 289 290 296 299 302 290 278 279 279 274 269 265 261 257 255 251 249 251 254 255 254 252 252 251 254 256 254 254 258 261 262 263 265 266 264 260 258 255
279 280 278 281 281 286 288 288 289 292 288 281 283 282 282 276 268 264 258 259 255 252 254 256 259 259 258 253 253 256 258 259 257 258 259 262 265 265 262 265 265 262 258
274 274 276 275 280 281 282 281 281 283 281 280 282 287 286 278 274 268 263 258 254 252 256 261 263 263 261 260 257 256 258 258 260 258 259 261 264 264 266 265 266 265 262
Height
5888 5887 5886 5886 5885 5885 5885 5884 5884 5884 5883 5883 5883 5882 5882 5882 5881 5881 5880 5880 5880 5879 5879 5879 5878 5878 5878 5878 5878 5878 5878 5878 5878 5878 5878 5879 5879 5880 5880 5881 5881 5882 5882
5887 5886 5885 5885 5885 5884 5884 5883 5883 5883 5882 5882 5882 5881 5881 5881 5881 5881 5880 5880 5879 5879 5879 5878 5878 5878 5877 5877 5877 5877 5877 5877 5877 5877 5878 5879 5879 5880 5880 5881 5881 5882 5882
5886 5885 5884 5884 5884 5883 5882 5882 5882 5881 5881 5881 5881 5880 5880 5880 5880 5880 5879 5879 5879 5878 5878 5878 5877 5877 5877 5877 5877 5877 5877 5876 5876 5877 5878 5878 5879 5880 5880 5880 5881 5882 5882
5885 5884 5883 5883 5882 5881 5881 5881 5880 5880 5880 5880 5879 5879 5879 5879 5879 5878 5878 5878 5878 5877 5877 5877 5876 5876 5876 5876 5876 5876 5876 5876 5876 5876 5877 5878 5879 5879 5880 5880 5881 5881 5882
5884 5883 5882 5881 5881 5880 5879 5879 5879 5878 5878 5878 5878 5878 5877 5877 5877 5877 5877 5876 5876 5876 5876 5876 5876 5875 5875 5875 5875 5875 5875 5875 5875 5876 5877 5877 5878 5879 5879 5879 5880 5880 5881
5883 5882 5881 5880 5879 5879 5878 5877 5877 5876 5876 5876 5876 5876 5875 5875 5875 5875 5875 5875 5874 5874 5874 5874 5874 5874 5874 5874 5874 5874 5874 5874 5874 5875 5876 5876 5877 5878 5878 5878 5878 5879 5880
5881 5880 5879 5878 5877 5877 5876 5875 5875 5875 5874 5874 5874 5874 5873 5873 5873 5873 5873 5872 5872 5872 5872 5872 5872 5872 5873 5873 5873 5873 5873 5873 5873 5874 5875 5875 5876 5876 5877 5877 5877 5878 5879
5878 5878 5877 5876 5875 5874 5874 5873 5873 5872 5872 5872 5872 5872 5871 5871 5871 5871 5871 5870 5870 5870 5870 5870 5871 5871 5871 5871 5871 5872 5872 5872 5872 5873 5873 5874 5874 5875 5875 5875 5876 5877 5878
5876 5875 5875 5874 5873 5872 5871 5871 5870 5870 5870 5870 5869 5869 5869 5869 5868 5868 5868 5868 5868 5868 5868 5868 5869 5869 5869 5869 5870 5870 5871 5871 5871 5871 5871 5872 5872 5873 5873 5874 5874 5875 5877
5874 5873 5873 5872 5871 5870 5869 5869 5868 5868 5867 5867 5867 5866 5866 5866 5866 5866 5866 5866 5866 5866 5866 5866 5866 5867 5867 5868 5868 5869 5869 5869 5870 5870 5870 5870 5871 5871 5872 5872 5872 5873 5875
5872 5871 5870 5870 5868 5867 5867 5866 5865 5865 5865 5864 5864 5864 5863 5863 5863 5863 5863 5863 5863 5863 5863 5864 5864 5865 5865 5866 5866 5867 5867 5867 5868 5868 5869 5869 5869 5870 5870 5871 5871 5872 5872
5871 5870 5868 5867 5865 5865 5864 5863 5863 5863 5862 5862 5861 5861 5861 5860 5860 5861 5860 5861 5861 5861 5861 5861 5862 5862 5863 5864 5864 5864 5865 5865 5866 5866 5867 5867 5867 5868 5868 5869 5869 5870 5871
5868 5867 5865 5865 5863 5862 5861 5860 5860 5860 5859 5859 5858 5858 5857 5857 5857 5858 5858 5858 5858 5859 5859 5859 5859 5860 5860 5861 5861 5862 5862 5863 5863 5864 5865 5865 5865 5865 5866 5867 5867 5868 5868
5865 5864 5863 5862 5861 5859 5858 5858 5857 5857 5856 5856 5855 5855 5854 5855 5855 5855 5856 5855 5855 5856 5856 5856 5857 5857 5858 5858 5859 5859 5860 5860 5861 5861 5862 5862 5863 5863 5864 5864 5864 5865 5866
5863 5862 5860 5859 5858 5856 5856 5855 5854 5854 5853 5852 5852 5852 5851 5852 5852 5852 5853 5853 5853 5853 5853 5854 5854 5855 5855 5856 5856 5857 5857 5858 5858 5859 5860 5860 5860 5861 5861 5862 5862 5863 5863
5859 5858 5858 5856 5855 5854 5853 5852 5851 5851 5850 5849 5849 5849 5849 5849 5849 5849 5850 5850 5850 5850 5850 5851 5851 5852 5852 5853 5854 5854 5855 5855 5856 5857 5857 5857 5858 5858 5858 5859 5859 5860 5860
5856 5855 5854 5853 5852 5851 5850 5849 5849 5847 5847 5846 5845 5845 5845 5845 5846 5846 5846 5846 5846 5846 5847 5847 5848 5848 5849 5850 5851 5851 5852 5853 5853 5853 5854 5855 5855 5855 5855 5856 5856 5857 5857
5853 5852 5850 5849 5848 5847 5846 5846 5845 5844 5843 5842 5842 5841 5841 5841 5842 5842 5843 5843 5843 5843 5843 5844 5844 5845 5846 5847 5848 5848 5849 5849 5850 5850 5851 5851 5852 5852 5852 5852 5852 5853 5854
5849 5848 5846 5846 5845 5844 5844 5843 5842 5841 5840 5839 5839 5838 5838 5839 5839 5839 5839 5839 5840 5840 5840 5841 5841 5842 5843 5843 5844 5845 5846 5846 5847 5847 5848 5848 5848 5848 5848 5848 5849 5849 5850
5845 5845 5843 5842 5842 5841 5840 5839 5838 5837 5837 5836 5835 5835 5835 5836 5836 5836 5836 5837 5837 5837 5838 5838 5839 5839 5840 5840 5841 5842 5843 5843 5843 5843 5843 5844 5844 5844 5844 5844 5845 5845 5846
5842 5841 5839 5838 5838 5838 5836 5835 5835 5834 5834 5833 5833 5833 5833 5833 5833 5833 5834 5834 5834 5834 5835 5835 5836 5836 5837 5837 5838 5838 5839 5839 5839 5839 5839 5839 5839 5839 5840 5840 5840 5841 5841
5838 5838 5837 5836 5836 5835 5834 5834 5833 5832 5831 5830 5830 5830 5830 5830 5830 5831 5831 5831 5831 5831 5832 5832 5833 5833 5833 5834 5834 5834 5835 5836 5835 5835 5835 5834 5835 5835 5835 5835 5836 5836 5837
5835 5835 5834 5833 5833 5832 5831 5831 5830 5829 5828 5828 5828 5828 5828 5827 5828 5828 5828 5828 5828 5828 5829 5829 5830 5830 5830 5830 5831 5831 5831 5832 5832 5832 5831 5831 5831 5830 5831 5831 5831 5831 5832
5831 5831 5830 5830 5830 5829 5829 5828 5828 5827 5826 5826 5826 5826 5825 5825 5825 5824 5825 5825 5825 5825 5825 5826 5826 5827 5827 5827 5827 5827 5828 5828 5828 5828 5827 5827 5827 5827 5827 5827 5827 5827 5827
5828 5827 5827 5826 5827 5826 5826 5826 5826 5825 5824 5824 5824 5823 5823 5822 5822 5822 5822 5822 5822 5822 5822 5822 5822 5823 5823 5823 5823 5824 5824 5824 5824 5824 5824 5824 5823 5823 5822 5822 5822 5822 5822
5825 5824 5824 5823 5824 5823 5823 5823 5823 5823 5822 5822 5822 5821 5821 5820 5819 5819 5818 5818 5818 5818 5819 5819 5819 5819 5819 5819 5819 5820 5820 5820 5819 5819 5820 5819 5819 5819 5818 5818 5818 5817 5816